sat.trackr.live / text

‹ back to catalog

QIANFAN-38

NORAD 62239 · 2024-232C

PAYLOAD ACTIVE UNKNOWN

§ Identity

Operator
Country
PRC
Launch date
2024-12-05
Launch site
TAISC
Launch vehicle
Mass (kg)
RCS (m²)

External: N2YO · Heavens-Above · Gunter

§ Orbital elements

Epoch: 2026-09-22T19:49:55.983360Z

Period
106.59 min
Inclination
89.0167°
Eccentricity
0.0016470
Mean motion
13.51029354 rev/d
Perigee alt
1,056.2 km
Apogee alt
1,080.7 km
Semi-major
7,446.6 km
B*
1.2115e-4
RAAN
12.7431°
Arg perigee
95.9616°
Mean anomaly
264.3413°
Rev number
13,758

§ Raw data

QIANFAN-381 62239U 24232C   26265.82634240  .00000090  00000+0  12115-3 0  99962 62239  89.0167  12.7431 0016470  95.9616 264.3413 13.51029354137587

JSON: /api/v1/satellites/62239 · /tle

For live sub-satellite position, see the globe view (requires WebGL).

§ Visibility from observer

Set your observer location to see the next 7 days of passes ≥ 10°. The values pass through the URL so the page stays shareable.

No JS? Fill the form by hand. The geolocation button needs JavaScript.